Saginaw, MI

4:03 PM EDT on August 29, 2016 (GMT -0400)
Saginaw County-Browne

Weather History for KHYX - April, 2013

Change the Weather History Date:

Thursday, April 11, 2013

  Actual Average (KMBS) Record (KMBS)
Temperature  
Mean Temperature 35 °F 44 °F  
Max Temperature 37 °F 54 °F 75 °F (2011)
Min Temperature 33 °F 34 °F 28 °F (2007)
Degree Days  
Heating Degree Days 30    
Month to date heating degree days  
Since 1 July heating degree days  
Cooling Degree Days 0    
Month to date cooling degree days  
Year to date cooling degree days  
Moisture  
Dew Point 34 °F    
Average Humidity 97    
Maximum Humidity 100    
Minimum Humidity 87    
Precipitation  
Precipitation 0.00 in 0.10 in 0.83 in (2013)
Month to date precipitation 0.98  
Year to date precipitation 6.36  
Snow  
Snow 0.00 in - - ()
Month to date snowfall  
Since 1 July snowfall  
Snow Depth -    
Sea Level Pressure  
Sea Level Pressure 29.92 in    
Wind  
Wind Speed 16 mph (ENE)    
Max Wind Speed 25 mph    
Max Gust Speed 30 mph    
Visibility 6 miles    
Events Rain , Snow    
T = Trace of Precipitation, MM = Missing Value Source: NWS Daily Summary

Daily Weather History Graph

Daily Weather History Graph

Search for Another Location

Airport or City:

Trip Planner

Search our weather history database for the weather conditions in past years. The results will help you decide how hot, cold, wet, or windy it might be!

Date:

Astronomy

Apr. 11, 2013 Rise Set
Actual Time 6:59 AM EDT 8:14 PM EDT
Civil Twilight 6:29 AM EDT 8:43 PM EDT
Nautical Twilight 5:54 AM EDT 9:19 PM EDT
Astronomical Twilight 5:17 AM EDT 9:56 PM EDT
Moon 7:27 AM EDT (4/11) 9:51 PM EDT (4/11)
Length of Visible Light 14h 13m
Length of Day
13h 14m
New Moon, 2% of the Moon is Illuminated
Apr 11
New Moon
Apr 18
First Quarter
Apr 25
Full
May 2
Last Quarter
May 9
New

Hourly Weather History & Observations

Time (EDT) Temp. Windchill Dew Point Humidity Pressure Visibility Wind Dir Wind Speed Gust Speed Precip Events Conditions
12:14 AM 35.6 °F 27.5 °F 33.8 °F 93% 30.02 in 10.0 mi NNE 11.5 mph - N/A   Overcast
12:34 AM 37.4 °F 30.3 °F 33.8 °F 87% 30.03 in 10.0 mi NNE 10.4 mph - N/A   Overcast
12:54 AM 37.4 °F 28.9 °F 33.8 °F 87% 30.02 in 10.0 mi NNE 13.8 mph - N/A   Overcast
1:14 AM 37.4 °F 28.5 °F 33.8 °F 87% 30.02 in 10.0 mi NE 15.0 mph 18.4 mph N/A   Overcast
1:34 AM 37.4 °F 28.5 °F 33.8 °F 87% 30.00 in 10.0 mi NE 15.0 mph - N/A   Overcast
1:54 AM 37.4 °F 28.9 °F 33.8 °F 87% 29.99 in 10.0 mi NE 13.8 mph 21.9 mph N/A   Overcast
2:14 AM 37.4 °F 28.9 °F 33.8 °F 87% 29.98 in 10.0 mi NE 13.8 mph - N/A   Overcast
2:34 AM 37.4 °F 28.9 °F 33.8 °F 87% 29.99 in 10.0 mi NE 13.8 mph - N/A   Overcast
2:54 AM 37.4 °F 30.3 °F 33.8 °F 87% 30.00 in 10.0 mi NE 10.4 mph - N/A   Overcast
3:14 AM 35.6 °F 29.9 °F 33.8 °F 93% 30.02 in 10.0 mi ENE 6.9 mph - N/A Rain Light Rain
3:34 AM 35.6 °F 28.0 °F 33.8 °F 93% 29.98 in 7.0 mi NE 10.4 mph - N/A Rain Light Rain
3:55 AM 35.6 °F 26.2 °F 33.8 °F 93% 29.95 in 10.0 mi NE 15.0 mph - N/A Rain Light Rain
4:15 AM 35.6 °F 26.6 °F 33.8 °F 93% 29.95 in 7.0 mi NE 13.8 mph - N/A Snow Light Snow
4:35 AM 35.6 °F 26.6 °F 33.8 °F 93% 29.96 in 3.0 mi NE 13.8 mph - N/A Snow Light Snow
4:55 AM 35.6 °F 26.2 °F 33.8 °F 93% 29.98 in 4.0 mi NE 15.0 mph 19.6 mph N/A Snow Light Snow
5:15 AM 35.6 °F 27.1 °F 33.8 °F 93% 29.99 in 3.0 mi ENE 12.7 mph - N/A Snow Light Snow
5:35 AM 35.6 °F 26.2 °F 33.8 °F 93% 29.99 in 5.0 mi NE 15.0 mph 20.7 mph N/A Snow Light Snow
5:55 AM 33.8 °F 23.2 °F 33.8 °F 100% 29.99 in 5.0 mi NE 17.3 mph - N/A Snow Light Snow
6:15 AM 33.8 °F 22.8 °F 33.8 °F 100% 29.98 in 5.0 mi NE 18.4 mph 21.9 mph N/A Snow Light Snow
6:35 AM 33.8 °F 22.5 °F 33.8 °F 100% 29.98 in 7.0 mi NE 19.6 mph 24.2 mph N/A Snow Light Snow
6:56 AM 33.8 °F 21.6 °F 33.8 °F 100% 29.97 in 7.0 mi NE 23.0 mph 28.8 mph N/A Snow Light Snow
7:11 AM 33.8 °F 21.0 °F 33.8 °F 100% 29.95 in 10.0 mi NE 25.3 mph 29.9 mph N/A   Overcast
7:31 AM 33.8 °F 21.3 °F 33.8 °F 100% 29.94 in 5.0 mi ENE 24.2 mph 29.9 mph N/A Snow Light Snow
7:51 AM 33.8 °F 21.9 °F 33.8 °F 100% 29.98 in 10.0 mi ENE 21.9 mph 29.9 mph N/A   Overcast
8:11 AM 33.8 °F 23.2 °F 33.8 °F 100% 30.01 in 10.0 mi ENE 17.3 mph 20.7 mph N/A   Overcast
8:31 AM 33.8 °F 22.2 °F 32.0 °F 93% 30.00 in 10.0 mi ENE 20.7 mph - N/A   Overcast
8:51 AM 33.8 °F 22.5 °F 32.0 °F 93% 29.98 in 3.0 mi ENE 19.6 mph - N/A Snow Light Snow
9:11 AM 33.8 °F 23.9 °F 33.8 °F 100% 30.01 in 5.0 mi ENE 15.0 mph - N/A   Overcast
9:32 AM 33.8 °F 22.8 °F 33.8 °F 100% 29.99 in 10.0 mi ENE 18.4 mph 21.9 mph N/A   Overcast
9:52 AM 33.8 °F 21.9 °F 33.8 °F 100% 29.97 in 10.0 mi ENE 21.9 mph - N/A   Overcast
10:12 AM 33.8 °F 23.5 °F 33.8 °F 100% 30.00 in 10.0 mi ENE 16.1 mph 23.0 mph N/A   Overcast
10:32 AM 35.6 °F 25.9 °F 33.8 °F 93% 30.00 in 10.0 mi ENE 16.1 mph 23.0 mph N/A   Overcast
10:52 AM 35.6 °F 24.8 °F 33.8 °F 93% 29.98 in 10.0 mi ENE 19.6 mph - N/A   Overcast
11:12 AM 35.6 °F 24.5 °F 33.8 °F 93% 29.98 in 7.0 mi ENE 20.7 mph - N/A   Drizzle
11:32 AM 35.6 °F 24.8 °F 33.8 °F 93% 29.97 in 5.0 mi ENE 19.6 mph 24.2 mph N/A Snow Light Snow
11:52 AM 35.6 °F 24.8 °F 33.8 °F 93% 29.98 in 5.0 mi ENE 19.6 mph 25.3 mph N/A   Overcast
12:12 PM 33.8 °F 22.8 °F 33.8 °F 100% 29.97 in 7.0 mi ENE 18.4 mph 27.6 mph N/A Snow Light Snow
12:32 PM 35.6 °F 25.9 °F 33.8 °F 93% 29.97 in 7.0 mi ENE 16.1 mph 25.3 mph N/A Snow Light Snow
1:12 PM 35.6 °F 25.2 °F 35.6 °F 100% 29.94 in 3.0 mi ENE 18.4 mph 25.3 mph N/A Snow Light Snow
1:33 PM 33.8 °F 22.5 °F 33.8 °F 100% 29.93 in 2.0 mi ENE 19.6 mph 25.3 mph N/A Snow Light Snow
1:53 PM 35.6 °F 25.9 °F 35.6 °F 100% 29.94 in 4.0 mi ENE 16.1 mph - N/A Snow Light Snow
2:13 PM 35.6 °F 24.8 °F 35.6 °F 100% 29.92 in 3.0 mi ENE 19.6 mph 27.6 mph N/A Snow Light Snow
2:33 PM 35.6 °F 24.5 °F 35.6 °F 100% 29.92 in 1.5 mi ENE 20.7 mph - N/A Snow Light Snow
2:53 PM 35.6 °F 26.2 °F 35.6 °F 100% 29.91 in 1.8 mi ENE 15.0 mph 21.9 mph N/A Snow Light Snow
3:13 PM 33.8 °F 23.9 °F 33.8 °F 100% 29.89 in 2.0 mi ENE 15.0 mph - N/A Snow Light Snow
3:36 PM 33.8 °F 23.5 °F 33.8 °F 100% 29.90 in 1.8 mi ENE 16.1 mph - N/A Snow Light Snow
3:46 PM 33.8 °F 23.2 °F 33.8 °F 100% 29.89 in 2.5 mi ENE 17.3 mph 23.0 mph N/A Snow Light Snow
4:02 PM 33.8 °F 22.5 °F 33.8 °F 100% 29.88 in 1.8 mi ENE 19.6 mph 25.3 mph N/A   Overcast
4:39 PM - - - N/A% - - North - - N/A   Unknown
4:59 PM 35.6 °F 25.5 °F 35.6 °F 100% 29.86 in 1.2 mi ENE 17.3 mph 23.0 mph N/A Snow Light Snow
5:20 PM 35.6 °F 25.9 °F 35.6 °F 100% 29.86 in 1.8 mi ENE 16.1 mph - N/A Snow Light Snow
5:38 PM 35.6 °F 25.5 °F 35.6 °F 100% 29.84 in 2.0 mi ENE 17.3 mph 20.7 mph N/A Snow Light Snow
6:02 PM 35.6 °F 25.5 °F 35.6 °F 100% 29.84 in 4.0 mi ENE 17.3 mph 21.9 mph N/A   Overcast
6:04 PM 35.6 °F 25.9 °F 35.6 °F 100% 29.84 in 7.0 mi ENE 16.1 mph 21.9 mph N/A   Overcast
6:14 PM 35.6 °F 25.5 °F 35.6 °F 100% 29.85 in 7.0 mi ENE 17.3 mph - N/A   Overcast
6:35 PM 35.6 °F 26.2 °F 35.6 °F 100% 29.84 in 1.5 mi ENE 15.0 mph - N/A   Overcast
6:55 PM 35.6 °F 26.2 °F 35.6 °F 100% 29.84 in 1.5 mi ENE 15.0 mph 19.6 mph N/A   Overcast
7:15 PM 35.6 °F 24.8 °F 35.6 °F 100% 29.85 in 4.0 mi ENE 19.6 mph 23.0 mph N/A   Overcast
7:35 PM 35.6 °F 25.5 °F 35.6 °F 100% 29.84 in 4.0 mi ENE 17.3 mph 20.7 mph N/A   Overcast
7:55 PM 35.6 °F 25.9 °F 35.6 °F 100% 29.83 in 1.2 mi ENE 16.1 mph - N/A   Overcast
8:15 PM 33.8 °F 23.5 °F 33.8 °F 100% 29.81 in 2.0 mi ENE 16.1 mph - N/A   Overcast
8:35 PM 33.8 °F 22.8 °F 33.8 °F 100% 29.81 in 2.0 mi ENE 18.4 mph 21.9 mph N/A Snow Light Snow
8:55 PM 33.8 °F 23.2 °F 33.8 °F 100% 29.81 in 2.5 mi ENE 17.3 mph 23.0 mph N/A   Overcast
9:15 PM 33.8 °F 23.5 °F 33.8 °F 100% 29.80 in 2.0 mi ENE 16.1 mph - N/A   Overcast
9:35 PM 33.8 °F 23.5 °F 33.8 °F 100% 29.79 in 5.0 mi ENE 16.1 mph 20.7 mph N/A Snow Light Snow
9:55 PM 33.8 °F 22.5 °F 33.8 °F 100% 29.77 in 4.0 mi ENE 19.6 mph 24.2 mph N/A   Overcast
10:16 PM 33.8 °F 22.5 °F 33.8 °F 100% 29.75 in 4.0 mi ENE 19.6 mph 26.5 mph N/A   Overcast
10:31 PM 33.8 °F 22.2 °F 33.8 °F 100% 29.73 in 5.0 mi ENE 20.7 mph 24.2 mph N/A   Overcast
10:51 PM 33.8 °F 22.8 °F 33.8 °F 100% 29.73 in 5.0 mi ENE 18.4 mph 25.3 mph N/A   Overcast
11:11 PM 33.8 °F 24.3 °F 33.8 °F 100% 29.73 in 10.0 mi ENE 13.8 mph - N/A   Overcast
11:31 PM 33.8 °F 23.5 °F 33.8 °F 100% 29.70 in 5.0 mi ENE 16.1 mph - N/A   Overcast
11:51 PM 33.8 °F 24.3 °F 33.8 °F 100% 29.71 in 7.0 mi ENE 13.8 mph - N/A   Overcast